Regional Weather Roundup
Issued by NWS Boston, MA

Home | Current Version | Previous Version | Text Only | Print | Product List | Glossary On
Versions: 1 2 3 4 5 6 7 8 9 10 11 12 13 14 15 16 17 18 19 20 21 22 23 24 25 26 27 28 29 30 31 32 33 34 35 36 37 38 39 40 41 42 43 44 45 46 47 48 49 50
000
ASUS41 KBOX 302010
RWRBOX

REGIONAL WEATHER ROUNDUP
NATIONAL WEATHER SERVICE TAUNTON MA
400 PM EDT THU MAR 30 2017

NOTE:  "FAIR" INDICATES FEW OR NO CLOUDS BELOW 12,000 FEET WITH NO
SIGNIFICANT WEATHER AND/OR OBSTRUCTIONS TO VISIBILITY.

MAZALL-302100-
EASTERN MASSACHUSETTS

CITY           SKY/WX    TMP DP  RH WIND       PRES   REMARKS
BOSTON         MOSUNNY   43  26  51 E12       30.15S
BEVERLY        SUNNY     45  25  45 SE8       30.14R
LAWRENCE       SUNNY     48  19  31 VRB5      30.15S
BEDFORD        SUNNY     49  15  25 N6        30.13S
BLUE HILL        N/A     46  18  32 NW8       30.11S
NORWOOD        SUNNY     51  19  28 CALM      30.14S
MARSHFIELD     SUNNY     43  23  45 NE9       30.15S
PLYMOUTH       SUNNY     44  21  40 NE8       30.15S
TAUNTON        SUNNY     50  20  30 NW5       30.13F
NEW BEDFORD    MOSUNNY   45  23  42 S9        30.14S
$$

MAZALL-302100-
CAPE COD AND THE ISLANDS

CITY           SKY/WX    TMP DP  RH WIND       PRES   REMARKS
FALMOUTH       SUNNY     43  19  39 MISG      30.16R
HYANNIS        SUNNY     44  20  38 NE12      30.14R
CHATHAM        SUNNY     45  19  35 N8        30.16S
PROVINCETOWN   SUNNY     42  28  57 N6        30.17S
NANTUCKET      SUNNY     45  22  40 N14       30.16R
MARTHAS VNYRD  MOSUNNY   48  23  37 S9        30.16R
$$

MAZALL-302100-
CENTRAL AND WESTERN MASSACHUSETTS

CITY           SKY/WX    TMP DP  RH WIND       PRES   REMARKS
WORCESTER      CLOUDY    45  16  31 VRB7      30.12S
FITCHBURG      SUNNY     51  20  29 N7        30.14R
ORANGE         MOSUNNY   47  16  29 N7        30.14F
SPRINGFIELD    PTSUNNY   50  18  28 W7        30.13F
WESTFIELD      MOSUNNY   51  19  28 CALM      30.14S
NORTH ADAMS    CLOUDY    45  21  38 NW7       30.16S
PITTSFIELD     CLOUDY    44  20  38 VRB7      30.13R
$$

RIZALL-302100-
RHODE ISLAND

CITY           SKY/WX    TMP DP  RH WIND       PRES   REMARKS
PROVIDENCE     MOSUNNY   53  19  26 N5        30.14F
NEWPORT        SUNNY     50  21  32 VRB3      30.14S
BLOCK ISLAND   SUNNY     42  25  50 S13       30.18S
SMITHFIELD     PTSUNNY   49  20  31 VRB6      30.13F
WESTERLY       SUNNY     45  26  47 S12       30.18S
$$

CTZALL-302100-
CONNECTICUT

CITY           SKY/WX    TMP DP  RH WIND       PRES   REMARKS
BRADLEY INTL   PTSUNNY   54  19  25 W10       30.14F
HARTFORD       SUNNY     52  21  29 CALM      30.15F
BRIDGEPORT     SUNNY     49  22  34 SW8       30.18F
DANBURY        SUNNY     50  17  27 W5        30.15F
GROTON         SUNNY     46  31  55 SW12      30.16S
NEW HAVEN      MOSUNNY   45  25  45 SW8       30.17F
CHESTER          N/A     48  23  37 SW12      30.15S
MERIDEN        SUNNY     54  19  25 SW7       30.14F
WILLIMANTIC    SUNNY     53  21  28 SW8       30.14F
OXFORD         MOSUNNY   52  18  25 VRB3      30.16R
$$

MEZ002-015-021-024-NHZ003-005-008-011-012-014-VTZ005-008-302100-
NORTHERN NEW ENGLAND

CITY           SKY/WX    TMP DP  RH WIND       PRES   REMARKS
PORTLAND ME    SUNNY     47  20  34 N13G21    30.12F
BANGOR ME      PTSUNNY   39  21  48 N21G31    30.11S WCI  29
CONCORD NH     SUNNY     49  19  30 NW9       30.14S
MANCHESTER NH  MOSUNNY   48  15  26 W5        30.13S
NASHUA NH      SUNNY     49  18  29 NW7       30.14S
PORTSMOUTH NH  MOSUNNY   49  17  27 NW12      30.12S
JAFFREY NH     SUNNY     46  14  27 CALM      30.12S
KEENE NH       SUNNY     47  17  30 N8        30.15S
BURLINGTON VT  PTSUNNY   41  21  44 NW13      30.20F
MT. WASHINGTON MOSUNNY   18   9  68 NW13G18     N/A  WCI   4
$$

NYZ052-076-302100-
EASTERN NEW YORK

CITY           SKY/WX    TMP DP  RH WIND       PRES   REMARKS
ALBANY         CLOUDY    46  19  34 VRB5      30.20S
NEW YORK CITY  CLOUDY    52  22  30 E6        30.16F
$$

ANZALL-302100-
MARINE OBSERVATIONS

STATION/POSITION TIME  TEMP    WIND        PRES    VSBY  WAVE
                       AIR SEA DIR/SP/G                  HT/PER
                 (UTC) (F)     (DEG/KT/KT) (MB)    (MI)  (FT/S)
BOSTON BUOY      1850   40 42  110/  4/  6 1020.0          4/ 7
BUZZARDS BAY     1900   39     170/ 13/ 13 1021.6F
NANTUCKET SOUND  1950      40              1021.2R         2/ 3
MASS BAY-STELLWA 1904   41 40   40/  8/ 10 1019.9F         3/ 7
ISLE OF SHOALS   1900   40     140/  8/  8 1020.4F
S OF BLOCK IS    1925      41                N/A           2/ 8
$$

......................KEY.........................
  SKY/WX - SKY CONDITION/PRESENT WEATHER
  TMP    - TEMPERATURE IN FAHRENHEIT
  DWPT   - DEWPOINT IN FAHRENHEIT
  RH     - RELATIVE HUMIDITY IN PERCENT
  WIND   - DIRECTION AND SPEED IN MPH
  PRES   - MEAN SEA LEVEL PRESSURE IN INCHES OF HG
  WCI    - WIND CHILL INDEX
  VSB    - VISIBILITY IN MILES
  HX     - HEAT INDEX
  TC     - TEMPERATURE IN CELSIUS
  VRB    - VARIABLE WIND DIRECTION
  N/A    - NOT AVAILABLE



USA.gov is the U.S. government's official web portal to all federal, state and local government web resources and services.